Погода в Вязьме

Погода в Вязьме : погода сейчас, прогноз погоды и архив. Всё, что Вы хотите узнать о погоде в Вязьме!

Поиск расширенной информации на нашем сайте:

Другие новости

Новости СМИ2

Главная страница сайта

Новости сайта

03.07.2017

Напоминаем, что на нашем специализированном сайте Метеоцентр.Азия вы можете получить высокодетализированные автоматические прогнозы погоды по пунктам России, СНГ и мира в авиационном формате (включающие направление и скорость ветра, видимость, явления погоды, количество и форму облачности, нижнюю и верхнюю границу облачности).


Погода в Вязьме - сегодня

Время (UTC), дата Ветер
(°,м/с) 
Видим.   Явления Облачность Т
(°С)
Тd
(°С)
f(%) Тe
(°С)
Pmin
(гПа)
dP
(гПа)
Po
(мм)
O2
(г/м3)
Тmin Tmax R s Состояние
почвы
21 16.08.18 тихо ()   4000 м  дымка  ясно 
+12.4 +11.2 92 +15  1021.5  0.7  744  285           
00 17.08.18 280 (З) 4000 м  дымка  ясно 
+8.8 +8.4 97 +10  1023  745  289           
03 17.08.18 060 (СВ) 4000 м  дымка  6/6 420 м 
[Sc]
+10.1 +9.6 97 +12  1023.9  746  288  +8.2         
09 17.08.18 080 (В) 10 км    4/4 1000 м 
[Cu hum]
+20.7 +11.1 54 +23  1023.6  746  277           
12 17.08.18 070 (В) 10 км    4/4 1000 м 
[Cu med, cong]
+20.7 +10.6 52 +23  1023.3  -0.3  746  277           
15 17.08.18 090 (В) 10 км    3/3 1000 м 
[Cu med, cong]
+21.7 +9 44 +22  1022.4  -0.8  745  277           
21 17.08.18 тихо ()   4000 м  дымка  ясно 
+10 +9.4 96 +11  1023.8  0.3  745  288           
00 18.08.18 тихо ()   4000 м  дымка  ясно 
+8 +7.6 97 +8  1024.6  0.5  746  291           
03 18.08.18 тихо ()   4000 м  дымка  3/0 верхняя 
[Cc]
+7.4 +7.1 98 +7  1024.7  0.1  746  291  +7.1         
06 18.08.18 120 (ЮВ) 10 км    3/0 верхняя 
[Cc]
+16.9 +11.6 71 +21  1023.9  0.2  746  281  +7.1        влажная 
09 18.08.18 150 (ЮВ) 10 км    6/3 1000 м средняя, верхняя 
[Cu hum|Ac trans|Cc]
+22 +10.3 47 +24  1023.1  -0.3  746  276           
12 18.08.18 140 (ЮВ) 10 км    8/4 1000 м верхняя 
[Cu Sc|Cc]
+23 +10.6 45 +25  1022.4  -0.6  745  275           
15 18.08.18 180 (Ю) 10 км    3/3 1000 м верхняя 
[Cu Sc|Ci fib]
+22.7 +11.3 49 +26  1021.4  -1  745  275           
21 18.08.18 тихо ()   4000 м  дымка  ясно 
+11.4 +10.8 96 +14  1022.4  745  286           
03 19.08.18 140 (ЮВ) 10 км  дымка  4/0 средняя, верхняя 
[Ac trans|Ci fib]
+13.5 +11.3 87 +17  1021  -0.9  744  283  +10         
06 19.08.18 180 (Ю) 10 км    4/0 средняя, верхняя 
[Ac trans|Cc]
+18.7 +13.1 70 +26  1020.1  -0.3  743  278  +10        сухая 
09 19.08.18 200 (Ю) 10 км    3/3 1000 м верхняя 
[Cu hum|Cc]
+23.5 +15.2 60 +33  1018.8  -0.8  743  272           
12 19.08.18 230 (ЮЗ) 10 км    4/4 300 м 
[Sc]
+23.6 +15.7 61 +34  1017.5  -1.2  742  272           
21 19.08.18 220 (ЮЗ) 4000 м  дымка  ясно 
+15.7 +15 96 +25  1017  -0.6  741  279           
00 20.08.18 260 (З) 4000 м  дымка  ясно 
+14.9 +14.2 96 +24  1017.3  0.2  741  280           
03 20.08.18 190 (Ю) 0500 м  туман  6/0 верхняя 
[Ci fib]
+11 +10.6 97 +14  1017.8  741  285  +11         
06 20.08.18 240 (ЮЗ) 10 км  {туман}  9/0 верхняя 
[Cc]
+17.9 +14.3 79 +27  1016.8  -0.3  741  277  +10.9        влажная 
09 20.08.18 260 (З) 10 км    9/3 600 м кучево-дожд., средняя, верхняя 
[Cb calv|Ac trans|Ci fib]
+21.5 +13.4 60 +28  1016.3  -0.1  741  274           
15 20.08.18 250 (З) 10 км    9/3 600 м верхняя 
[Cu med, cong|Cc]
+21 +14.5 66 +29  1014.2  -1.3  739  274           
21 20.08.18 190 (Ю) 4000 м  дымка  6/0 средняя, верхняя 
[Ac trans|Ci fib]
+15.4 +14.5 94 +25  1012  -1.6  737  278           
Время (UTC), дата Ветер
(°,м/с) 
Видим.   Явления Облачность Т
(°С)
Тd
(°С)
f(%) Тe
(°С)
Pmin
(гПа)
dP
(гПа)
Po
(мм)
O2
(г/м3)
Тmin Tmax R s Состояние
почвы

Для получения пояснительной информации подведите курсор к названию столбца.

ПОГОДА в Вязьме - архив

Всё, что Вы хотите узнать о погоде в Вязьме - удобно и подробно!

Выберите нужную дату (начиная с 1 января 2015* года) и нажмите кнопку "Найти".
Будут отображены архивные сводки погоды по пункту Вязьма, начиная с указанной даты.


Отображать данные в формате CSV (для использования в таблицах Excel)


Внимание! Наш архив погоды предназначен исключительно для личного некоммерческого использования в познавательных целях. Если Вам необходимы официальные справки о состоянии погоды (для производственных, юридических, коммерческих и т.п. целей), обращайтесь в органы Росгидромета.

*Примечание: данная дата относится к архиву по метеостанциям СССР (Россия, СНГ, Балтия).
Архив по метеостанциям Зарубежной Европы и Азии (кроме Китая) хранится 10 дней, по другим регионам земного шара (Китай, Африка, Америка, Австралия, Океания) - 1 день.

Вязьма - район местоположения метеостанции


Название, широта, долгота, высота метеостанции:
Вязьма 55.2°ш. 34.4°д. 251 м над ур. моря [Российская Федерация]

Дополнительная информация

В oтличие oт бoльшинства пoгoдных сайтoв мы публикуем пoдрoбную метеoинфoрмацию в детальнoм прoфессиoнальнoм фoрмате.

Характеристики температуры и влажнoсти вoздуха измеряются на высoте 2 м в тени вдали oт зданий и деревьев.
Скoрoсть ветра измеряется на высoте 10 м (на урoвне рoста челoвека скoрoсть ветра ниже в 1.5-2 раза). Если метеoстанция нахoдится в гoрoде или в лесу, тo скoрoсть ветра занижена на 2-4 м/с пo сравнению с oткрытым местoм. Скoрoсть ветра над акватoриями крупных рек и oзёр, а также на вершинах хoлмoв на 2-5 м/с выше, чем в oбычных услoвиях.
Атмoсфернoе давление в разных тoчках местнoсти мoжет значительнo oтличаться oт давления на метеoстанции, в зависимoсти oт услoвий рельефа (при пoдъёме на 10 м давление пoнижается примернo на 1 мм рт.ст.).